Tracking 31030 objects as of 17-Jul-2025
HD Live streaming from Space Station
objects crossing your sky now

STARLINK-30236

Track STARLINK-30236 now!
10-day predictions
STARLINK-30236 is classified as:


NORAD ID: 57300
Int'l Code: 2023-096L
Perigee: 565.6 km
Apogee: 566.9 km
Inclination: 43.0 °
Period: 95.8 minutes
Semi major axis: 6937 km
RCS: Unknown
Launch date: July 10, 2023
Source: United States (US)
Launch site: AIR FORCE EASTERN TEST RANGE (AFETR)
Your satellite tracking list
Your tracking list is empty




NASA's NSSDC Master Catalog

Two Line Element Set (TLE):
1 57300U 23096L   25197.33894592  .00000253  00000-0  33776-4 0  9992
2 57300  43.0055  67.4598 0000929 263.0656  97.0080 15.02534926110970
Source of the keplerian elements: AFSPC